User: anonymous   Login
Location: Buckeye Ditch
(40.9104°N, 122.9517°W)
Time: 00:56:32
(UTC+00:00)
Language:

ALOS - Orbit

View from above orbital plane
View from above orbital plane
View from above satellite
View from above satellite

Ground track
Ground track

The orbit data is extracted from the following two-line orbital elements,

1 28931U 06002A   24174.89097542  .00001851  00000-0  34753-3 0  9993
2 28931  98.0371 127.8273 0002443 100.2707 259.8772 14.65856830982187
Epoch (UTC): 22 June 2024 21:23:00
Eccentricity: 0.0002443
inclination: 98.0371°
perigee height: 672 km
apogee height: 676 km
right ascension of ascending node: 127.8273°
argument of perigee: 100.2707°
revolutions per day: 14.65856830
mean anomaly at epoch: 259.8772°
orbit number at epoch: 98218

The dashed part of the orbit path shows where the satellite is in the earth's shadow,  

DLR